owner,sensor,date,latitude,longitude,vertical_datum,direction_of_sea_water_velocity,sea_water_speed,upward_sea_water_velocity,qcFlag 
TABS,ioos:station:wmo:42044:1,2013-11-01T00:00:00Z,26.1914,-97.0507,2.0,352.9630575,36.40423739,-99999.0,'11111222,11111222,99999999' 
TABS,ioos:station:wmo:42044:1,2013-11-01T00:30:00Z,26.1914,-97.0507,2.0,353.176192,42.50108822,-99999.0,'11111222,11111222,99999999' 
TABS,ioos:station:wmo:42044:1,2013-11-01T01:00:00Z,26.1914,-97.0507,2.0,349.8368737,41.65360128,-99999.0,'11111222,11111222,99999999' 
TABS,ioos:station:wmo:42044:1,2013-11-01T01:30:00Z,26.1914,-97.0507,2.0,348.7756753,38.17012575,-99999.0,'11111222,11111222,99999999' 
TABS,ioos:station:wmo:42044:1,2013-11-01T02:00:00Z,26.1914,-97.0507,2.0,344.220807,36.5160855,-99999.0,'11111222,11111222,99999999' 
TABS,ioos:station:wmo:42044:1,2013-11-01T02:30:00Z,26.1914,-97.0507,2.0,344.4905683,36.1254993,-99999.0,'11111222,11111222,99999999' 
TABS,ioos:station:wmo:42044:1,2013-11-01T03:00:00Z,26.1914,-97.0507,2.0,336.2874224,32.62439731,-99999.0,'11111222,11111222,99999999' 
TABS,ioos:station:wmo:42044:1,2013-11-01T03:30:00Z,26.1914,-97.0507,2.0,343.9035735,34.33613985,-99999.0,'11111222,11111222,99999999' 
TABS,ioos:station:wmo:42044:1,2013-11-01T04:00:00Z,26.1914,-97.0507,2.0,338.5514361,35.00423403,-99999.0,'11111222,11111222,99999999' 
TABS,ioos:station:wmo:42044:1,2013-11-01T04:30:00Z,26.1914,-97.0507,2.0,335.0322139,34.01933568,-99999.0,'11111222,11111222,99999999' 
TABS,ioos:station:wmo:42044:1,2013-11-01T05:00:00Z,26.1914,-97.0507,2.0,331.9817631,29.97295448,-99999.0,'11111222,11111222,99999999' 
TABS,ioos:station:wmo:42044:1,2013-11-01T05:30:00Z,26.1914,-97.0507,2.0,326.4585404,32.14221056,-99999.0,'11111222,11111222,99999999' 
TABS,ioos:station:wmo:42044:1,2013-11-01T06:00:00Z,26.1914,-97.0507,2.0,325.5880663,32.78815945,-99999.0,'11111222,11111222,99999999' 
TABS,ioos:station:wmo:42044:1,2013-11-01T06:30:00Z,26.1914,-97.0507,2.0,330.4839402,31.09575534,-99999.0,'11111222,11111222,99999999' 
TABS,ioos:station:wmo:42044:1,2013-11-01T07:00:00Z,26.1914,-97.0507,2.0,332.2215479,30.40392902,-99999.0,'11111222,11111222,99999999' 
TABS,ioos:station:wmo:42044:1,2013-11-01T07:30:00Z,26.1914,-97.0507,2.0,326.6009565,31.15513762,-99999.0,'11111222,11111222,99999999' 
TABS,ioos:station:wmo:42044:1,2013-11-01T08:00:00Z,26.1914,-97.0507,2.0,320.9945943,30.26702661,-99999.0,'11111222,11111222,99999999' 
TABS,ioos:station:wmo:42044:1,2013-11-01T08:30:00Z,26.1914,-97.0507,2.0,321.6513962,30.22006784,-99999.0,'11111222,11111222,99999999' 
TABS,ioos:station:wmo:42044:1,2013-11-01T09:00:00Z,26.1914,-97.0507,2.0,319.9422104,29.63186292,-99999.0,'11111222,11111222,99999999' 
TABS,ioos:station:wmo:42044:1,2013-11-01T09:30:00Z,26.1914,-97.0507,2.0,314.1131241,30.14050431,-99999.0,'11111222,11111222,99999999' 
TABS,ioos:station:wmo:42044:1,2013-11-01T10:00:00Z,26.1914,-97.0507,2.0,318.2905893,26.85776238,-99999.0,'11111222,11111222,99999999' 
TABS,ioos:station:wmo:42044:1,2013-11-01T10:30:00Z,26.1914,-97.0507,2.0,313.6633693,27.88173954,-99999.0,'11111222,11111222,99999999' 
TABS,ioos:station:wmo:42044:1,2013-11-01T11:00:00Z,26.1914,-97.0507,2.0,306.9475324,28.16602563,-99999.0,'11111222,11111222,99999999' 
TABS,ioos:station:wmo:42044:1,2013-11-01T11:30:00Z,26.1914,-97.0507,2.0,306.5728849,30.83041518,-99999.0,'11111222,11111222,99999999' 
TABS,ioos:station:wmo:42044:1,2013-11-01T12:00:00Z,26.1914,-97.0507,2.0,307.9635425,30.18749576,-99999.0,'11111222,11111222,99999999' 
TABS,ioos:station:wmo:42044:1,2013-11-01T12:30:00Z,26.1914,-97.0507,2.0,306.5837021,31.59439507,-99999.0,'11111222,11111222,99999999' 
TABS,ioos:station:wmo:42044:1,2013-11-01T13:00:00Z,26.1914,-97.0507,2.0,309.9450648,30.57401675,-99999.0,'11111222,11111222,99999999' 
TABS,ioos:station:wmo:42044:1,2013-11-01T13:30:00Z,26.1914,-97.0507,2.0,308.2464289,32.22729588,-99999.0,'11111222,11111222,99999999' 
TABS,ioos:station:wmo:42044:1,2013-11-01T14:00:00Z,26.1914,-97.0507,2.0,309.3623408,31.09340766,-99999.0,'11111222,11111222,99999999' 
TABS,ioos:station:wmo:42044:1,2013-11-01T14:30:00Z,26.1914,-97.0507,2.0,306.9863496,34.54007093,-99999.0,'11111222,11111222,99999999' 
TABS,ioos:station:wmo:42044:1,2013-11-01T15:00:00Z,26.1914,-97.0507,2.0,307.6180067,32.02872773,-99999.0,'11111222,11111222,99999999' 
TABS,ioos:station:wmo:42044:1,2013-11-01T15:30:00Z,26.1914,-97.0507,2.0,306.1824302,33.48841292,-99999.0,'11111222,11111222,99999999' 
TABS,ioos:station:wmo:42044:1,2013-11-01T16:00:00Z,26.1914,-97.0507,2.0,308.5375843,32.85591119,-99999.0,'11111222,11111222,99999999' 
TABS,ioos:station:wmo:42044:1,2013-11-01T16:30:00Z,26.1914,-97.0507,2.0,305.3795912,33.21323983,-99999.0,'11111222,11111222,99999999' 
TABS,ioos:station:wmo:42044:1,2013-11-01T17:00:00Z,26.1914,-97.0507,2.0,309.2920986,34.12448095,-99999.0,'11111222,11111222,99999999' 
TABS,ioos:station:wmo:42044:1,2013-11-01T17:30:00Z,26.1914,-97.0507,2.0,309.7003984,33.37671044,-99999.0,'11111222,11111222,99999999' 
TABS,ioos:station:wmo:42044:1,2013-11-01T18:00:00Z,26.1914,-97.0507,2.0,312.0506423,30.36804406,-99999.0,'11111222,11111222,99999999' 
TABS,ioos:station:wmo:42044:1,2013-11-01T18:30:00Z,26.1914,-97.0507,2.0,311.4654434,34.74970072,-99999.0,'11111222,11111222,99999999' 
TABS,ioos:station:wmo:42044:1,2013-11-01T19:00:00Z,26.1914,-97.0507,2.0,316.2872363,33.68799341,-99999.0,'11111222,11111222,99999999' 
TABS,ioos:station:wmo:42044:1,2013-11-01T19:30:00Z,26.1914,-97.0507,2.0,313.9542171,32.92130769,-99999.0,'11111222,11111222,99999999' 
TABS,ioos:station:wmo:42044:1,2013-11-01T20:00:00Z,26.1914,-97.0507,2.0,318.5731343,28.82112073,-99999.0,'11111222,11111222,99999999' 
TABS,ioos:station:wmo:42044:1,2013-11-01T20:30:00Z,26.1914,-97.0507,2.0,322.516384,31.35380041,-99999.0,'11111222,11111222,99999999' 
TABS,ioos:station:wmo:42044:1,2013-11-01T21:00:00Z,26.1914,-97.0507,2.0,327.6162641,28.23047998,-99999.0,'11111222,11111222,99999999' 
TABS,ioos:station:wmo:42044:1,2013-11-01T21:30:00Z,26.1914,-97.0507,2.0,323.3346607,26.92817112,-99999.0,'11111222,11111222,99999999' 
TABS,ioos:station:wmo:42044:1,2013-11-01T22:00:00Z,26.1914,-97.0507,2.0,330.5338311,29.86295531,-99999.0,'11111222,11111222,99999999' 
TABS,ioos:station:wmo:42044:1,2013-11-01T22:30:00Z,26.1914,-97.0507,2.0,333.9253433,25.61733202,-99999.0,'11111222,11111222,99999999' 
TABS,ioos:station:wmo:42044:1,2013-11-01T23:00:00Z,26.1914,-97.0507,2.0,334.2334625,28.24875218,-99999.0,'11111222,11111222,99999999' 
TABS,ioos:station:wmo:42044:1,2013-11-01T23:30:00Z,26.1914,-97.0507,2.0,339.8660047,26.23314316,-99999.0,'11111222,11111222,99999999' 
TABS,ioos:station:wmo:42044:1,2013-11-02T00:00:00Z,26.1914,-97.0507,2.0,331.590556,25.28514386,-99999.0,'11111222,11111222,99999999' 
TABS,ioos:station:wmo:42044:1,2013-11-02T00:30:00Z,26.1914,-97.0507,2.0,343.4015003,24.57402897,-99999.0,'11111222,11111222,99999999' 
TABS,ioos:station:wmo:42044:1,2013-11-02T01:00:00Z,26.1914,-97.0507,2.0,340.4427768,18.40166297,-99999.0,'11111222,11111222,99999999' 
TABS,ioos:station:wmo:42044:1,2013-11-02T01:30:00Z,26.1914,-97.0507,2.0,344.5253705,18.0648969,-99999.0,'11111222,11111222,99999999' 
TABS,ioos:station:wmo:42044:1,2013-11-02T02:00:00Z,26.1914,-97.0507,2.0,348.121875,17.19827026,-99999.0,'11111222,11111222,99999999' 
TABS,ioos:station:wmo:42044:1,2013-11-02T02:30:00Z,26.1914,-97.0507,2.0,335.1497491,15.39551233,-99999.0,'11111222,11111222,99999999' 
TABS,ioos:station:wmo:42044:1,2013-11-02T03:00:00Z,26.1914,-97.0507,2.0,337.2259566,18.26391251,-99999.0,'11111222,11111222,99999999' 
TABS,ioos:station:wmo:42044:1,2013-11-02T03:30:00Z,26.1914,-97.0507,2.0,1.099799923,10.42191921,-99999.0,'11111222,11111222,99999999' 
TABS,ioos:station:wmo:42044:1,2013-11-02T04:00:00Z,26.1914,-97.0507,2.0,23.04273446,7.715594598,-99999.0,'11133222,11111222,99999999' 
TABS,ioos:station:wmo:42044:1,2013-11-02T04:30:00Z,26.1914,-97.0507,2.0,356.6128316,9.64685441,-99999.0,'11133222,11111222,99999999' 
TABS,ioos:station:wmo:42044:1,2013-11-02T05:00:00Z,26.1914,-97.0507,2.0,55.49155771,5.436616595,-99999.0,'11133222,11111222,99999999' 
TABS,ioos:station:wmo:42044:1,2013-11-02T05:30:00Z,26.1914,-97.0507,2.0,320.8958189,2.615989297,-99999.0,'11133222,11111222,99999999' 
TABS,ioos:station:wmo:42044:1,2013-11-02T06:00:00Z,26.1914,-97.0507,2.0,283.6904385,4.014037867,-99999.0,'11133222,11111222,99999999' 
TABS,ioos:station:wmo:42044:1,2013-11-02T06:30:00Z,26.1914,-97.0507,2.0,265.6401814,2.236470434,-99999.0,'11133222,11111222,99999999' 
TABS,ioos:station:wmo:42044:1,2013-11-02T07:00:00Z,26.1914,-97.0507,2.0,240.3353141,5.293807703,-99999.0,'11133222,11111222,99999999' 
TABS,ioos:station:wmo:42044:1,2013-11-02T07:30:00Z,26.1914,-97.0507,2.0,213.4504495,6.639819275,-99999.0,'11133222,11111222,99999999' 
TABS,ioos:station:wmo:42044:1,2013-11-02T08:00:00Z,26.1914,-97.0507,2.0,210.7971588,9.453041838,-99999.0,'11133222,11111222,99999999' 
TABS,ioos:station:wmo:42044:1,2013-11-02T08:30:00Z,26.1914,-97.0507,2.0,200.0235102,10.83496654,-99999.0,'11111222,11111222,99999999' 
TABS,ioos:station:wmo:42044:1,2013-11-02T09:00:00Z,26.1914,-97.0507,2.0,192.6184121,24.90147787,-99999.0,'11111222,11111222,99999999' 
TABS,ioos:station:wmo:42044:1,2013-11-02T09:30:00Z,26.1914,-97.0507,2.0,199.8834533,23.6392576,-99999.0,'11111222,11111222,99999999' 
TABS,ioos:station:wmo:42044:1,2013-11-02T10:00:00Z,26.1914,-97.0507,2.0,207.1284494,26.82069723,-99999.0,'11111222,11111222,99999999' 
TABS,ioos:station:wmo:42044:1,2013-11-02T10:30:00Z,26.1914,-97.0507,2.0,209.2281774,29.44952292,-99999.0,'11111222,11111222,99999999' 
TABS,ioos:station:wmo:42044:1,2013-11-02T11:00:00Z,26.1914,-97.0507,2.0,211.1889191,27.45885103,-99999.0,'11111222,11111222,99999999' 
TABS,ioos:station:wmo:42044:1,2013-11-02T11:30:00Z,26.1914,-97.0507,2.0,206.0376468,34.51293381,-99999.0,'11111222,11111222,99999999' 
TABS,ioos:station:wmo:42044:1,2013-11-02T12:00:00Z,26.1914,-97.0507,2.0,195.6091138,34.89705145,-99999.0,'11111222,11111222,99999999' 
TABS,ioos:station:wmo:42044:1,2013-11-02T12:30:00Z,26.1914,-97.0507,2.0,200.7638094,40.61822744,-99999.0,'11111222,11111222,99999999' 
TABS,ioos:station:wmo:42044:1,2013-11-02T13:00:00Z,26.1914,-97.0507,2.0,201.8498932,37.1056559,-99999.0,'11111222,11111222,99999999' 
TABS,ioos:station:wmo:42044:1,2013-11-02T13:30:00Z,26.1914,-97.0507,2.0,201.4548028,33.79159807,-99999.0,'11111222,11111222,99999999' 
TABS,ioos:station:wmo:42044:1,2013-11-02T14:00:00Z,26.1914,-97.0507,2.0,194.7694158,43.57994608,-99999.0,'11111222,11111222,99999999' 
TABS,ioos:station:wmo:42044:1,2013-11-02T14:30:00Z,26.1914,-97.0507,2.0,197.5427596,42.86354278,-99999.0,'11111222,11111222,99999999' 
TABS,ioos:station:wmo:42044:1,2013-11-02T15:00:00Z,26.1914,-97.0507,2.0,193.0823075,44.44353384,-99999.0,'11111222,11111222,99999999' 
TABS,ioos:station:wmo:42044:1,2013-11-02T15:30:00Z,26.1914,-97.0507,2.0,190.0722438,44.7700268,-99999.0,'11111222,11111222,99999999' 
TABS,ioos:station:wmo:42044:1,2013-11-02T16:00:00Z,26.1914,-97.0507,2.0,184.1476007,49.21891608,-99999.0,'11111222,11111222,99999999' 
TABS,ioos:station:wmo:42044:1,2013-11-02T16:30:00Z,26.1914,-97.0507,2.0,192.9906842,46.53092735,-99999.0,'11111222,11111222,99999999' 
TABS,ioos:station:wmo:42044:1,2013-11-02T17:00:00Z,26.1914,-97.0507,2.0,194.4229818,45.24605287,-99999.0,'11111222,11111222,99999999' 
TABS,ioos:station:wmo:42044:1,2013-11-02T17:30:00Z,26.1914,-97.0507,2.0,188.5984016,48.42429142,-99999.0,'11111222,11111222,99999999' 
TABS,ioos:station:wmo:42044:1,2013-11-02T18:00:00Z,26.1914,-97.0507,2.0,186.1417953,47.57308167,-99999.0,'11111222,11111222,99999999' 
TABS,ioos:station:wmo:42044:1,2013-11-02T18:30:00Z,26.1914,-97.0507,2.0,180.7519557,40.37347892,-99999.0,'11111222,11111222,99999999' 
TABS,ioos:station:wmo:42044:1,2013-11-02T19:00:00Z,26.1914,-97.0507,2.0,190.6738494,28.45231976,-99999.0,'11111222,11111222,99999999' 
TABS,ioos:station:wmo:42044:1,2013-11-02T19:30:00Z,26.1914,-97.0507,2.0,185.040338,26.63299645,-99999.0,'11111222,11111222,99999999' 
TABS,ioos:station:wmo:42044:1,2013-11-02T20:00:00Z,26.1914,-97.0507,2.0,172.8911194,30.4641724,-99999.0,'11111222,11111222,99999999' 
TABS,ioos:station:wmo:42044:1,2013-11-02T20:30:00Z,26.1914,-97.0507,2.0,175.1340838,30.29919141,-99999.0,'11111222,11111222,99999999' 
TABS,ioos:station:wmo:42044:1,2013-11-02T21:00:00Z,26.1914,-97.0507,2.0,182.0342645,26.19651313,-99999.0,'11111222,11111222,99999999' 
TABS,ioos:station:wmo:42044:1,2013-11-02T21:30:00Z,26.1914,-97.0507,2.0,192.4745112,27.59139721,-99999.0,'11111222,11111222,99999999' 
TABS,ioos:station:wmo:42044:1,2013-11-02T22:00:00Z,26.1914,-97.0507,2.0,177.7199023,25.64029641,-99999.0,'11111222,11111222,99999999' 
TABS,ioos:station:wmo:42044:1,2013-11-02T22:30:00Z,26.1914,-97.0507,2.0,180.4352529,27.63079803,-99999.0,'11111222,11111222,99999999' 
TABS,ioos:station:wmo:42044:1,2013-11-02T23:00:00Z,26.1914,-97.0507,2.0,165.8521203,23.68849932,-99999.0,'11111222,11111222,99999999' 
TABS,ioos:station:wmo:42044:1,2013-11-02T23:30:00Z,26.1914,-97.0507,2.0,187.4844224,21.34183685,-99999.0,'11111222,11111222,99999999' 
TABS,ioos:station:wmo:42044:1,2013-11-03T00:00:00Z,26.1914,-97.0507,2.0,187.2191078,24.11114473,-99999.0,'11111222,11111222,99999999' 
TABS,ioos:station:wmo:42044:1,2013-11-03T00:30:00Z,26.1914,-97.0507,2.0,163.7767528,27.77600583,-99999.0,'11111222,11111222,99999999' 
TABS,ioos:station:wmo:42044:1,2013-11-03T01:00:00Z,26.1914,-97.0507,2.0,163.0254421,25.92961434,-99999.0,'11111222,11111222,99999999' 
TABS,ioos:station:wmo:42044:1,2013-11-03T01:30:00Z,26.1914,-97.0507,2.0,183.9952955,23.10615935,-99999.0,'11111222,11111222,99999999' 
TABS,ioos:station:wmo:42044:1,2013-11-03T02:00:00Z,26.1914,-97.0507,2.0,173.9602617,20.62447575,-99999.0,'11111222,11111222,99999999' 
TABS,ioos:station:wmo:42044:1,2013-11-03T02:30:00Z,26.1914,-97.0507,2.0,183.9396347,18.48368199,-99999.0,'11111222,11111222,99999999' 
TABS,ioos:station:wmo:42044:1,2013-11-03T03:00:00Z,26.1914,-97.0507,2.0,184.7607696,17.9519414,-99999.0,'11111222,11111222,99999999' 
TABS,ioos:station:wmo:42044:1,2013-11-03T03:30:00Z,26.1914,-97.0507,2.0,186.680951,19.85483568,-99999.0,'11111222,11111222,99999999' 
TABS,ioos:station:wmo:42044:1,2013-11-03T04:00:00Z,26.1914,-97.0507,2.0,168.0276107,17.30644389,-99999.0,'11111222,11111222,99999999' 
TABS,ioos:station:wmo:42044:1,2013-11-03T04:30:00Z,26.1914,-97.0507,2.0,174.0861631,15.72367641,-99999.0,'11111222,11111222,99999999' 
TABS,ioos:station:wmo:42044:1,2013-11-03T05:00:00Z,26.1914,-97.0507,2.0,176.2412426,19.2213423,-99999.0,'11111222,11111222,99999999' 
TABS,ioos:station:wmo:42044:1,2013-11-03T05:30:00Z,26.1914,-97.0507,2.0,168.2342359,17.26268809,-99999.0,'11111222,11111222,99999999' 
TABS,ioos:station:wmo:42044:1,2013-11-03T06:00:00Z,26.1914,-97.0507,2.0,189.0794971,15.01818231,-99999.0,'11111222,11111222,99999999' 
TABS,ioos:station:wmo:42044:1,2013-11-03T06:30:00Z,26.1914,-97.0507,2.0,186.0603262,16.29105276,-99999.0,'11111222,11111222,99999999' 
TABS,ioos:station:wmo:42044:1,2013-11-03T07:00:00Z,26.1914,-97.0507,2.0,186.2177221,17.08048301,-99999.0,'11111222,11111222,99999999' 
TABS,ioos:station:wmo:42044:1,2013-11-03T07:30:00Z,26.1914,-97.0507,2.0,174.9139476,16.24395272,-99999.0,'11111222,11111222,99999999' 
TABS,ioos:station:wmo:42044:1,2013-11-03T08:00:00Z,26.1914,-97.0507,2.0,180.6188432,18.51108047,-99999.0,'11111222,11111222,99999999' 
TABS,ioos:station:wmo:42044:1,2013-11-03T08:30:00Z,26.1914,-97.0507,2.0,179.5164134,20.15071711,-99999.0,'11111222,11111222,99999999' 
TABS,ioos:station:wmo:42044:1,2013-11-03T09:00:00Z,26.1914,-97.0507,2.0,181.5791209,18.86716725,-99999.0,'11111222,11111222,99999999' 
TABS,ioos:station:wmo:42044:1,2013-11-03T09:30:00Z,26.1914,-97.0507,2.0,176.278485,19.72158209,-99999.0,'11111222,11111222,99999999' 
TABS,ioos:station:wmo:42044:1,2013-11-03T10:00:00Z,26.1914,-97.0507,2.0,182.3966385,15.30338851,-99999.0,'11111222,11111222,99999999' 
TABS,ioos:station:wmo:42044:1,2013-11-03T10:30:00Z,26.1914,-97.0507,2.0,180.5153333,16.67067485,-99999.0,'11111222,11111222,99999999' 
TABS,ioos:station:wmo:42044:1,2013-11-03T11:00:00Z,26.1914,-97.0507,2.0,170.356864,17.73051889,-99999.0,'11111222,11111222,99999999' 
TABS,ioos:station:wmo:42044:1,2013-11-03T11:30:00Z,26.1914,-97.0507,2.0,185.7244455,20.25099751,-99999.0,'11111222,11111222,99999999' 
TABS,ioos:station:wmo:42044:1,2013-11-03T12:00:00Z,26.1914,-97.0507,2.0,170.8419146,16.39903046,-99999.0,'11111222,11111222,99999999' 
TABS,ioos:station:wmo:42044:1,2013-11-03T12:30:00Z,26.1914,-97.0507,2.0,201.5388461,15.0080545,-99999.0,'11111222,11111222,99999999' 
TABS,ioos:station:wmo:42044:1,2013-11-03T13:00:00Z,26.1914,-97.0507,2.0,197.2978299,10.99740424,-99999.0,'11111222,11111222,99999999' 
TABS,ioos:station:wmo:42044:1,2013-11-03T13:30:00Z,26.1914,-97.0507,2.0,211.5606161,15.30364989,-99999.0,'11111222,11111222,99999999' 
TABS,ioos:station:wmo:42044:1,2013-11-03T14:00:00Z,26.1914,-97.0507,2.0,198.4617598,6.694542553,-99999.0,'11133222,11111222,99999999' 
TABS,ioos:station:wmo:42044:1,2013-11-03T14:30:00Z,26.1914,-97.0507,2.0,222.6117176,8.315726066,-99999.0,'11133222,11111222,99999999' 
TABS,ioos:station:wmo:42044:1,2013-11-03T15:00:00Z,26.1914,-97.0507,2.0,202.3331258,8.000099999,-99999.0,'11133222,11111222,99999999' 
TABS,ioos:station:wmo:42044:1,2013-11-03T15:30:00Z,26.1914,-97.0507,2.0,248.7381738,10.83766119,-99999.0,'11111222,11111222,99999999' 
TABS,ioos:station:wmo:42044:1,2013-11-03T16:00:00Z,26.1914,-97.0507,2.0,241.9337374,10.24470595,-99999.0,'11111222,11111222,99999999' 
TABS,ioos:station:wmo:42044:1,2013-11-03T16:30:00Z,26.1914,-97.0507,2.0,245.1014532,8.455915089,-99999.0,'11133222,11111222,99999999' 
TABS,ioos:station:wmo:42044:1,2013-11-03T17:00:00Z,26.1914,-97.0507,2.0,258.6042847,10.52752583,-99999.0,'11111222,11111222,99999999' 
TABS,ioos:station:wmo:42044:1,2013-11-03T17:30:00Z,26.1914,-97.0507,2.0,269.5539553,9.000272218,-99999.0,'11133222,11111222,99999999' 
TABS,ioos:station:wmo:42044:1,2013-11-03T18:00:00Z,26.1914,-97.0507,2.0,288.7526991,9.70517903,-99999.0,'11133222,11111222,99999999' 
TABS,ioos:station:wmo:42044:1,2013-11-03T18:30:00Z,26.1914,-97.0507,2.0,298.808622,9.940231386,-99999.0,'11133222,11111222,99999999' 
TABS,ioos:station:wmo:42044:1,2013-11-03T19:00:00Z,26.1914,-97.0507,2.0,309.5893236,9.823059605,-99999.0,'11133222,11111222,99999999' 
TABS,ioos:station:wmo:42044:1,2013-11-03T19:30:00Z,26.1914,-97.0507,2.0,313.0253863,12.31097072,-99999.0,'11111222,11111222,99999999' 
TABS,ioos:station:wmo:42044:1,2013-11-03T20:00:00Z,26.1914,-97.0507,2.0,326.3102217,13.0160401,-99999.0,'11111222,11111222,99999999' 
TABS,ioos:station:wmo:42044:1,2013-11-03T20:30:00Z,26.1914,-97.0507,2.0,330.6495917,17.66792574,-99999.0,'11111222,11111222,99999999' 
TABS,ioos:station:wmo:42044:1,2013-11-03T21:00:00Z,26.1914,-97.0507,2.0,335.2591337,18.82828723,-99999.0,'11111222,11111222,99999999' 
TABS,ioos:station:wmo:42044:1,2013-11-03T21:30:00Z,26.1914,-97.0507,2.0,337.3210888,17.09154762,-99999.0,'11111222,11111222,99999999' 
TABS,ioos:station:wmo:42044:1,2013-11-03T22:00:00Z,26.1914,-97.0507,2.0,344.9555144,17.91403081,-99999.0,'11111222,11111222,99999999' 
TABS,ioos:station:wmo:42044:1,2013-11-03T22:30:00Z,26.1914,-97.0507,2.0,352.7856024,19.82697657,-99999.0,'11111222,11111222,99999999' 
TABS,ioos:station:wmo:42044:1,2013-11-03T23:00:00Z,26.1914,-97.0507,2.0,357.2210501,18.56183181,-99999.0,'11111222,11111222,99999999' 
TABS,ioos:station:wmo:42044:1,2013-11-03T23:30:00Z,26.1914,-97.0507,2.0,4.688737918,17.73936019,-99999.0,'11111222,11111222,99999999' 
TABS,ioos:station:wmo:42044:1,2013-11-04T00:00:00Z,26.1914,-97.0507,2.0,18.07715465,17.20945089,-99999.0,'11111222,11111222,99999999' 
TABS,ioos:station:wmo:42044:1,2013-11-04T00:30:00Z,26.1914,-97.0507,2.0,20.07280285,18.58913661,-99999.0,'11111222,11111222,99999999' 
TABS,ioos:station:wmo:42044:1,2013-11-04T01:00:00Z,26.1914,-97.0507,2.0,17.52745272,16.76850023,-99999.0,'11111222,11111222,99999999' 
TABS,ioos:station:wmo:42044:1,2013-11-04T01:30:00Z,26.1914,-97.0507,2.0,20.81120847,17.6195488,-99999.0,'11111222,11111222,99999999' 
TABS,ioos:station:wmo:42044:1,2013-11-04T02:00:00Z,26.1914,-97.0507,2.0,26.33923807,18.14359667,-99999.0,'11111222,11111222,99999999' 
TABS,ioos:station:wmo:42044:1,2013-11-04T02:30:00Z,26.1914,-97.0507,2.0,23.55383157,19.06868637,-99999.0,'11111222,11111222,99999999' 
TABS,ioos:station:wmo:42044:1,2013-11-04T03:00:00Z,26.1914,-97.0507,2.0,15.72349404,18.7828246,-99999.0,'11111222,11111222,99999999' 
TABS,ioos:station:wmo:42044:1,2013-11-04T03:30:00Z,26.1914,-97.0507,2.0,13.75600815,18.33591285,-99999.0,'11111222,11111222,99999999' 
TABS,ioos:station:wmo:42044:1,2013-11-04T04:00:00Z,26.1914,-97.0507,2.0,23.09943384,18.93835526,-99999.0,'11111222,11111222,99999999' 
TABS,ioos:station:wmo:42044:1,2013-11-04T04:30:00Z,26.1914,-97.0507,2.0,18.71057388,19.73284065,-99999.0,'11111222,11111222,99999999' 
TABS,ioos:station:wmo:42044:1,2013-11-04T05:00:00Z,26.1914,-97.0507,2.0,18.07886236,23.39498237,-99999.0,'11111222,11111222,99999999' 
TABS,ioos:station:wmo:42044:1,2013-11-04T05:30:00Z,26.1914,-97.0507,2.0,19.64356801,22.19147584,-99999.0,'11111222,11111222,99999999' 
TABS,ioos:station:wmo:42044:1,2013-11-04T06:00:00Z,26.1914,-97.0507,2.0,19.41343646,20.18776114,-99999.0,'11111222,11111222,99999999' 
TABS,ioos:station:wmo:42044:1,2013-11-04T06:30:00Z,26.1914,-97.0507,2.0,18.55815602,22.08856039,-99999.0,'11111222,11111222,99999999' 
TABS,ioos:station:wmo:42044:1,2013-11-04T07:00:00Z,26.1914,-97.0507,2.0,23.85745294,21.01567034,-99999.0,'11111222,11111222,99999999' 
TABS,ioos:station:wmo:42044:1,2013-11-04T07:30:00Z,26.1914,-97.0507,2.0,15.63484355,23.30218874,-99999.0,'11111222,11111222,99999999' 
TABS,ioos:station:wmo:42044:1,2013-11-04T08:00:00Z,26.1914,-97.0507,2.0,22.15806248,23.2792182,-99999.0,'11111222,11111222,99999999' 
TABS,ioos:station:wmo:42044:1,2013-11-04T08:30:00Z,26.1914,-97.0507,2.0,25.33088356,24.7053395,-99999.0,'11111222,11111222,99999999' 
TABS,ioos:station:wmo:42044:1,2013-11-04T09:00:00Z,26.1914,-97.0507,2.0,21.90210434,22.22405229,-99999.0,'11111222,11111222,99999999' 
TABS,ioos:station:wmo:42044:1,2013-11-04T09:30:00Z,26.1914,-97.0507,2.0,30.97882505,26.32503371,-99999.0,'11111222,11111222,99999999' 
TABS,ioos:station:wmo:42044:1,2013-11-04T10:00:00Z,26.1914,-97.0507,2.0,24.41174909,23.44607856,-99999.0,'11111222,11111222,99999999' 
TABS,ioos:station:wmo:42044:1,2013-11-04T10:30:00Z,26.1914,-97.0507,2.0,28.20066078,26.3247716,-99999.0,'11111222,11111222,99999999' 
TABS,ioos:station:wmo:42044:1,2013-11-04T11:00:00Z,26.1914,-97.0507,2.0,27.78999271,23.01439767,-99999.0,'11111222,11111222,99999999' 
TABS,ioos:station:wmo:42044:1,2013-11-04T11:30:00Z,26.1914,-97.0507,2.0,36.97332808,23.29403786,-99999.0,'11111222,11111222,99999999' 
TABS,ioos:station:wmo:42044:1,2013-11-04T12:00:00Z,26.1914,-97.0507,2.0,34.94648129,24.66790019,-99999.0,'11111222,11111222,99999999' 
TABS,ioos:station:wmo:42044:1,2013-11-04T12:30:00Z,26.1914,-97.0507,2.0,35.86019825,24.17175418,-99999.0,'11111222,11111222,99999999' 
TABS,ioos:station:wmo:42044:1,2013-11-04T13:00:00Z,26.1914,-97.0507,2.0,40.6126628,22.0911136,-99999.0,'11111222,11111222,99999999' 
TABS,ioos:station:wmo:42044:1,2013-11-04T13:30:00Z,26.1914,-97.0507,2.0,39.50410181,23.10841622,-99999.0,'11111222,11111222,99999999' 
TABS,ioos:station:wmo:42044:1,2013-11-04T14:00:00Z,26.1914,-97.0507,2.0,43.43880517,19.98318543,-99999.0,'11111222,11111222,99999999' 
TABS,ioos:station:wmo:42044:1,2013-11-04T14:30:00Z,26.1914,-97.0507,2.0,40.10842786,21.80882619,-99999.0,'11111222,11111222,99999999' 
TABS,ioos:station:wmo:42044:1,2013-11-04T15:00:00Z,26.1914,-97.0507,2.0,41.07460634,19.83137413,-99999.0,'11111222,11111222,99999999' 
TABS,ioos:station:wmo:42044:1,2013-11-04T15:30:00Z,26.1914,-97.0507,2.0,46.0865445,19.39235416,-99999.0,'11111222,11111222,99999999' 
TABS,ioos:station:wmo:42044:1,2013-11-04T16:00:00Z,26.1914,-97.0507,2.0,48.96475068,18.61316738,-99999.0,'11111222,11111222,99999999' 